This is the latest recevied weather packets stored in our database for station/object N5JXS. If no packets are shown the sender has not sent any weather packets the latest 10 day(s).
| Time | Temp. | Humidity | Pressure | Rain* | Wind** | Luminosity | Snow |
|---|---|---|---|---|---|---|---|
| 1777992011 | 0.56° C | 96% | 1016.1 hPa | 0 mm | - | 17 W/m² | - |
| 1777991709 | 0.56° C | 96% | 1016.4 hPa | 0 mm | - | 12 W/m² | - |
| 1777991405 | 0.56° C | 96% | 1016.5 hPa | 0 mm | - | 19 W/m² | - |
| 1777991102 | 0.56° C | 96% | 1016.4 hPa | 0 mm | - | 12 W/m² | - |
| 1777990799 | 0.56° C | 96% | 1016.6 hPa | 0 mm | - | 17 W/m² | - |
| 1777990496 | 0.56° C | 96% | 1016 hPa | 0 mm | - | 11 W/m² | - |
| 1777989890 | 0.56° C | 96% | 1016.5 hPa | 0 mm | - | 11 W/m² | - |
| 1777989587 | 1.11° C | 96% | 1016.4 hPa | 0 mm | - | 9 W/m² | - |
| 1777989283 | 1.11° C | 96% | 1016.3 hPa | 0 mm | - | 8 W/m² | - |
| 1777988980 | 1.67° C | 96% | 1016.1 hPa | 0 mm | - | 10 W/m² | - |
| 1777988676 | 1.67° C | 96% | 1016.3 hPa | 0 mm | - | 6 W/m² | - |
| 1777988373 | 1.67° C | 96% | 1016.1 hPa | 0 mm | - | 7 W/m² | - |
| 1777988070 | 1.67° C | 96% | 1016.1 hPa | 0 mm | - | 9 W/m² | - |
| 1777987766 | 1.67° C | 96% | 1016 hPa | 0 mm | - | 9 W/m² | - |
| 1777987463 | 1.67° C | 96% | 1015.8 hPa | 0 mm | - | 10 W/m² | - |
| 1777987160 | 1.67° C | 96% | 1015.6 hPa | 0 mm | - | 6 W/m² | - |
| 1777986857 | 1.67° C | 96% | 1015.5 hPa | 0 mm | - | 10 W/m² | - |
| 1777986555 | 2.22° C | 96% | 1015.9 hPa | 0 mm | - | 4 W/m² | - |
| 1777986253 | 2.22° C | 96% | 1015.8 hPa | 0 mm | - | 3 W/m² | - |
| 1777985949 | 2.78° C | 96% | 1015.8 hPa | 0 mm | - | 3 W/m² | - |
| 1777985648 | 2.78° C | 96% | 1015.5 hPa | 0 mm | - | 6 W/m² | - |
| 1777985343 | 3.33° C | 96% | 1015.5 hPa | 0 mm | - | 3 W/m² | - |
| 1777985041 | 3.33° C | 97% | 1015.4 hPa | 0 mm | - | 2 W/m² | - |
| 1777984736 | 3.33° C | 97% | 1015.4 hPa | 0 mm | - | 4 W/m² | - |
| 1777984433 | 3.33° C | 96% | 1015.3 hPa | 0 mm | - | 4 W/m² | - |
* Rain latest hour (hover to see other rain measurements)
** Current wind speed in m/s (hover to see current wind gust speed)